TimeCST,TemperatureF,Dew PointF,Humidity,Sea Level PressureIn,VisibilityMPH,Wind Direction,Wind SpeedMPH,Gust SpeedMPH,PrecipitationIn,Events,Conditions,WindDirDegrees,DateUTC
12:53 AM,28.0,24.1,85,30.21,5.0,WNW,8.1,-,N/A,,Clear,290,2012-02-07 06:53:00
1:53 AM,27.0,24.1,89,30.22,5.0,WNW,8.1,-,N/A,,Clear,290,2012-02-07 07:53:00
2:53 AM,27.0,24.1,89,30.22,4.0,NW,8.1,-,N/A,,Clear,320,2012-02-07 08:53:00
3:53 AM,26.1,24.1,92,30.23,4.0,NW,6.9,-,N/A,,Partly Cloudy,320,2012-02-07 09:53:00
4:41 AM,26.6,24.8,93,30.20,3.0,NNW,5.8,-,N/A,,Mostly Cloudy,330,2012-02-07 10:41:00
4:53 AM,27.0,24.1,89,30.24,3.0,NNW,6.9,-,N/A,,Mostly Cloudy,330,2012-02-07 10:53:00
5:53 AM,26.1,24.1,92,30.27,3.0,North,9.2,-,N/A,,Overcast,10,2012-02-07 11:53:00
6:11 AM,26.6,24.8,93,30.24,3.0,NNE,8.1,-,N/A,,Overcast,20,2012-02-07 12:11:00
6:42 AM,26.6,24.8,93,30.24,1.8,NNE,11.5,-,N/A,,Overcast,30,2012-02-07 12:42:00
6:53 AM,26.1,25.0,96,30.28,0.8,NE,10.4,-,N/A,,Overcast,40,2012-02-07 12:53:00
7:28 AM,26.6,26.6,100,30.26,0.2,NNE,6.9,-,N/A,Fog,Light Freezing Fog,20,2012-02-07 13:28:00
7:53 AM,27.0,27.0,100,30.31,0.2,NNE,9.2,-,N/A,Fog,Light Freezing Fog,30,2012-02-07 13:53:00
8:10 AM,28.4,26.6,93,30.28,0.5,NE,8.1,-,N/A,Fog,Light Freezing Fog,40,2012-02-07 14:10:00
8:28 AM,28.4,28.4,100,30.29,1.0,NE,5.8,-,N/A,,Overcast,50,2012-02-07 14:28:00
8:53 AM,28.9,28.0,96,30.33,1.8,NE,5.8,-,N/A,,Overcast,40,2012-02-07 14:53:00
9:02 AM,28.4,28.4,100,30.30,2.0,NE,5.8,-,N/A,,Overcast,40,2012-02-07 15:02:00
9:29 AM,30.2,28.4,93,30.31,2.5,NNE,6.9,-,N/A,,Overcast,30,2012-02-07 15:29:00
9:53 AM,30.0,28.0,92,30.34,2.5,NE,8.1,-,N/A,,Overcast,40,2012-02-07 15:53:00
10:29 AM,30.2,28.4,93,30.33,3.0,NNE,8.1,-,N/A,,Overcast,30,2012-02-07 16:29:00
10:53 AM,30.9,28.9,92,30.37,3.0,NNE,8.1,-,N/A,,Overcast,30,2012-02-07 16:53:00
11:53 AM,32.0,28.9,88,30.37,4.0,NE,11.5,-,N/A,,Overcast,50,2012-02-07 17:53:00
12:10 PM,32.0,28.4,87,30.33,3.0,NE,9.2,-,N/A,,Overcast,50,2012-02-07 18:10:00
12:53 PM,32.0,30.0,92,30.36,3.0,NE,10.4,-,N/A,,Overcast,50,2012-02-07 18:53:00
1:36 PM,32.0,30.2,93,30.33,2.5,NE,11.5,-,N/A,,Overcast,40,2012-02-07 19:36:00
1:53 PM,32.0,30.9,96,30.36,2.0,NE,9.2,-,N/A,,Overcast,40,2012-02-07 19:53:00
2:08 PM,32.0,30.2,93,30.33,1.5,NE,9.2,-,N/A,,Overcast,50,2012-02-07 20:08:00
2:22 PM,32.0,30.2,93,30.33,1.0,NE,9.2,-,N/A,,Overcast,40,2012-02-07 20:22:00
2:53 PM,32.0,30.9,96,30.37,1.2,NE,6.9,-,N/A,,Overcast,40,2012-02-07 20:53:00
3:44 PM,32.0,30.2,93,30.35,2.0,NE,10.4,-,0.00,,Overcast,40,2012-02-07 21:44:00
3:53 PM,32.0,30.9,96,30.39,2.5,NNE,10.4,-,0.00,,Overcast,30,2012-02-07 21:53:00
4:22 PM,32.0,30.2,93,30.35,4.0,NE,12.7,-,N/A,,Overcast,40,2012-02-07 22:22:00
4:41 PM,32.0,30.2,93,30.36,4.0,NE,9.2,-,N/A,,Overcast,40,2012-02-07 22:41:00
4:45 PM,32.0,30.2,93,30.36,3.0,NNE,9.2,-,0.00,Rain,Light Freezing Rain,30,2012-02-07 22:45:00
4:53 PM,32.0,30.0,92,30.40,2.5,NE,12.7,-,0.00,Rain,Light Freezing Rain,40,2012-02-07 22:53:00
5:23 PM,32.0,30.2,93,30.37,2.5,NE,10.4,-,0.00,Rain,Light Freezing Rain,40,2012-02-07 23:23:00
5:28 PM,32.0,30.2,93,30.37,3.0,NE,13.8,-,0.00,Rain,Light Freezing Rain,40,2012-02-07 23:28:00
5:53 PM,32.0,30.0,92,30.41,5.0,NNE,10.4,-,0.00,Rain,Light Freezing Rain,30,2012-02-07 23:53:00
6:18 PM,30.2,30.2,100,30.38,6.0,NNE,12.7,-,0.00,Rain,Light Freezing Rain,30,2012-02-08 00:18:00
6:25 PM,30.2,30.2,100,30.38,5.0,NNE,13.8,-,0.00,Rain,Light Freezing Rain,30,2012-02-08 00:25:00
6:35 PM,30.2,28.4,93,30.38,5.0,NNE,12.7,-,0.00,Rain,Light Freezing Rain,30,2012-02-08 00:35:00
6:53 PM,30.9,28.9,92,30.42,4.0,NE,11.5,-,0.00,Rain,Light Freezing Rain,40,2012-02-08 00:53:00
7:05 PM,30.2,28.4,93,30.39,5.0,NE,11.5,-,0.00,Rain,Light Freezing Rain,40,2012-02-08 01:05:00
7:17 PM,30.2,28.4,93,30.39,7.0,NE,12.7,-,0.00,Rain,Light Freezing Rain,40,2012-02-08 01:17:00
7:31 PM,30.2,28.4,93,30.39,7.0,NNE,11.5,-,0.00,,Overcast,30,2012-02-08 01:31:00
7:49 PM,30.2,28.4,93,30.39,7.0,NNE,12.7,-,0.00,,Overcast,30,2012-02-08 01:49:00
7:53 PM,30.9,28.9,92,30.43,7.0,NE,11.5,-,0.00,,Overcast,40,2012-02-08 01:53:00
8:29 PM,30.2,28.4,93,30.40,7.0,NE,11.5,-,N/A,,Overcast,50,2012-02-08 02:29:00
8:53 PM,30.0,28.0,92,30.44,8.0,NE,10.4,-,N/A,,Overcast,40,2012-02-08 02:53:00
9:24 PM,30.2,28.4,93,30.42,8.0,NE,9.2,-,N/A,,Overcast,40,2012-02-08 03:24:00
9:53 PM,30.0,28.0,92,30.46,7.0,NE,5.8,-,N/A,,Overcast,40,2012-02-08 03:53:00
10:11 PM,30.2,26.6,86,30.43,5.0,NE,6.9,-,0.00,Snow,Light Snow,50,2012-02-08 04:11:00
10:53 PM,30.0,27.0,88,30.46,5.0,NE,5.8,-,0.00,Snow,Light Snow,40,2012-02-08 04:53:00
11:00 PM,30.2,26.6,86,30.43,7.0,NE,5.8,-,0.00,Snow,Light Snow,40,2012-02-08 05:00:00
11:16 PM,30.2,26.6,86,30.43,5.0,NNE,3.5,-,0.00,Snow,Light Snow,20,2012-02-08 05:16:00
11:53 PM,28.9,26.1,89,30.46,10.0,ENE,5.8,-,0.01,,Overcast,60,2012-02-08 05:53:00